When you browse on this site, cookies collect data to enhance your experience and personalize the content and advertising you see.
Visit our Privacy Policy to learn more. By continuing to use the site, you agree to this use of cookies and data.
  • In Österreich
  • Länderverzeichnis
  • Für 7 Tage
  • Wassertemperatur
  • Satellitenkarten
  • Wetterkarte
  • News
  • Widgets
  • user-avatar
    Anmelden

    Stündliche Wetter Tirana

    Heute, 17 November, Samstag

    Zeit Temperatur Niederschläge Wind Luftdruck Luftfeuchtigkeit
    00:00 +8°C° 0.1 mm 6 m/S 757 mmHg 62%
    01:00 +8°C° 0 mm 6 m/S 757 mmHg 61%
    02:00 +8°C° 0 mm 5 m/S 757 mmHg 63%
    03:00 +8°C° 0 mm 5 m/S 756 mmHg 64%
    04:00 +7°C° 0 mm 5 m/S 756 mmHg 66%
    05:00 +7°C° 0 mm 5 m/S 756 mmHg 66%
    06:00 +7°C° 0 mm 5 m/S 756 mmHg 67%
    07:00 +7°C° 0 mm 5 m/S 756 mmHg 68%
    08:00 +8°C° 0 mm 5 m/S 756 mmHg 62%
    09:00 +10°C° 0 mm 5 m/S 756 mmHg 57%
    10:00 +11°C° 0 mm 6 m/S 756 mmHg 52%
    11:00 +12°C° 0.1 mm 5 m/S 756 mmHg 51%
    12:00 +13°C° 0.1 mm 5 m/S 756 mmHg 49%
    13:00 +13°C° 0.1 mm 5 m/S 756 mmHg 48%
    14:00 +12°C° 0.1 mm 5 m/S 756 mmHg 51%
    15:00 +10°C° 0.1 mm 5 m/S 756 mmHg 54%
    16:00 +10°C° 0.1 mm 5 m/S 756 mmHg 58%
    17:00 +9°C° 0.1 mm 5 m/S 756 mmHg 60%
    18:00 +8°C° 0.1 mm 5 m/S 756 mmHg 63%
    19:00 +8°C° 0.1 mm 5 m/S 756 mmHg 66%
    20:00 +8°C° 0.3 mm 5 m/S 756 mmHg 67%
    21:00 +8°C° 0.3 mm 5 m/S 756 mmHg 68%
    22:00 +8°C° 0.3 mm 5 m/S 756 mmHg 68%
    23:00 +8°C° 0.2 mm 5 m/S 756 mmHg 69%

    Morgen, 18 November, Sonntag

    Zeit Temperatur Niederschläge Wind Luftdruck Luftfeuchtigkeit
    00:00 +7°C° 0.2 mm 5 m/S 756 mmHg 69%
    01:00 +7°C° 0.2 mm 5 m/S 755 mmHg 70%
    02:00 +7°C° 0 mm 5 m/S 755 mmHg 70%
    03:00 +7°C° 0 mm 5 m/S 755 mmHg 70%
    04:00 +7°C° 0 mm 5 m/S 755 mmHg 70%
    05:00 +7°C° 0 mm 5 m/S 754 mmHg 70%
    06:00 +7°C° 0 mm 5 m/S 754 mmHg 69%
    07:00 +7°C° 0 mm 5 m/S 754 mmHg 69%
    08:00 +8°C° 0.2 mm 5 m/S 754 mmHg 69%
    09:00 +8°C° 0.2 mm 5 m/S 753 mmHg 69%
    10:00 +9°C° 0.2 mm 5 m/S 753 mmHg 69%
    11:00 +9°C° 0.5 mm 5 m/S 753 mmHg 69%
    12:00 +10°C° 0.5 mm 4 m/S 752 mmHg 70%
    13:00 +10°C° 0.5 mm 4 m/S 752 mmHg 71%
    14:00 +10°C° 0.3 mm 4 m/S 751 mmHg 72%
    15:00 +10°C° 0.3 mm 4 m/S 751 mmHg 74%
    16:00 +8°C° 0.3 mm 4 m/S 751 mmHg 75%
    17:00 +8°C° 0.1 mm 4 m/S 751 mmHg 75%
    18:00 +8°C° 0.1 mm 4 m/S 750 mmHg 76%
    19:00 +8°C° 0.1 mm 4 m/S 750 mmHg 76%
    20:00 +8°C° 0 mm 3 m/S 750 mmHg 77%
    21:00 +8°C° 0 mm 3 m/S 750 mmHg 78%
    22:00 +7°C° 0 mm 3 m/S 750 mmHg 78%
    23:00 +7°C° 0 mm 2 m/S 750 mmHg 78%

    übermorgen, 19 November, Montag

    Zeit Temperatur Niederschläge Wind Luftdruck Luftfeuchtigkeit
    00:00 +7°C° 0 mm 2 m/S 750 mmHg 78%
    01:00 +7°C° 0 mm 2 m/S 750 mmHg 78%
    02:00 +7°C° 0 mm 2 m/S 750 mmHg 77%
    03:00 +7°C° 0 mm 2 m/S 750 mmHg 76%
    04:00 +7°C° 0 mm 2 m/S 750 mmHg 75%
    05:00 +7°C° 0 mm 2 m/S 750 mmHg 75%
    06:00 +7°C° 0 mm 2 m/S 750 mmHg 75%
    07:00 +7°C° 0 mm 3 m/S 750 mmHg 74%
    08:00 +9°C° 0 mm 3 m/S 750 mmHg 69%
    09:00 +12°C° 0 mm 2 m/S 751 mmHg 64%
    10:00 +14°C° 0 mm 2 m/S 751 mmHg 59%
    11:00 +15°C° 0 mm 2 m/S 751 mmHg 57%
    12:00 +15°C° 0 mm 2 m/S 751 mmHg 55%
    13:00 +16°C° 0 mm 3 m/S 750 mmHg 53%
    14:00 +14°C° 0.2 mm 3 m/S 750 mmHg 58%
    15:00 +13°C° 0.2 mm 3 m/S 750 mmHg 63%
    16:00 +13°C° 0.2 mm 3 m/S 750 mmHg 68%
    17:00 +12°C° 0.6 mm 4 m/S 750 mmHg 70%
    18:00 +12°C° 0.6 mm 5 m/S 750 mmHg 73%
    19:00 +10°C° 0.6 mm 6 m/S 750 mmHg 76%
    20:00 +10°C° 1.7 mm 6 m/S 750 mmHg 77%
    21:00 +10°C° 1.7 mm 6 m/S 750 mmHg 79%
    22:00 +10°C° 1.7 mm 6 m/S 750 mmHg 80%
    23:00 +10°C° 1.9 mm 7 m/S 750 mmHg 80%

    20 November, Dienstag

    Zeit Temperatur Niederschläge Wind Luftdruck Luftfeuchtigkeit
    00:00 +10°C° 1.9 mm 7 m/S 750 mmHg 80%
    01:00 +10°C° 1.9 mm 8 m/S 750 mmHg 80%
    02:00 +11°C° 1.1 mm 8 m/S 749 mmHg 79%
    03:00 +11°C° 1.1 mm 9 m/S 749 mmHg 79%
    04:00 +11°C° 1.1 mm 9 m/S 749 mmHg 79%
    05:00 +11°C° 0.8 mm 9 m/S 749 mmHg 78%
    06:00 +11°C° 0.8 mm 9 m/S 749 mmHg 78%
    07:00 +11°C° 0.8 mm 9 m/S 749 mmHg 77%
    08:00 +11°C° 1.5 mm 10 m/S 749 mmHg 77%
    09:00 +12°C° 1.5 mm 10 m/S 749 mmHg 77%
    10:00 +12°C° 1.5 mm 10 m/S 749 mmHg 77%
    11:00 +13°C° 2.3 mm 10 m/S 748 mmHg 76%
    12:00 +13°C° 2.3 mm 9 m/S 748 mmHg 75%
    13:00 +15°C° 2.3 mm 9 m/S 747 mmHg 75%
    14:00 +14°C° 3.1 mm 10 m/S 747 mmHg 75%
    15:00 +13°C° 3.1 mm 10 m/S 747 mmHg 76%
    16:00 +13°C° 3.1 mm 11 m/S 747 mmHg 77%
    17:00 +13°C° 2.6 mm 10 m/S 747 mmHg 79%
    18:00 +13°C° 2.6 mm 8 m/S 747 mmHg 82%
    19:00 +12°C° 2.6 mm 7 m/S 747 mmHg 85%
    20:00 +12°C° 0.7 mm 7 m/S 748 mmHg 85%
    21:00 +13°C° 0.7 mm 6 m/S 749 mmHg 86%
    22:00 +13°C° 0.7 mm 5 m/S 749 mmHg 86%
    23:00 +13°C° 0.3 mm 5 m/S 749 mmHg 87%

    21 November, Mittwoch

    Zeit Temperatur Niederschläge Wind Luftdruck Luftfeuchtigkeit
    00:00 +12°C° 0.3 mm 5 m/S 749 mmHg 87%
    01:00 +12°C° 0.3 mm 5 m/S 750 mmHg 88%
    02:00 +12°C° 0.2 mm 5 m/S 750 mmHg 88%
    03:00 +12°C° 0.2 mm 5 m/S 750 mmHg 88%
    04:00 +12°C° 0.2 mm 5 m/S 750 mmHg 89%
    05:00 +12°C° 0.6 mm 4 m/S 750 mmHg 88%
    06:00 +12°C° 0.6 mm 4 m/S 751 mmHg 87%
    07:00 +12°C° 0.6 mm 4 m/S 751 mmHg 86%
    08:00 +13°C° 0.5 mm 3 m/S 751 mmHg 83%
    09:00 +14°C° 0.5 mm 3 m/S 752 mmHg 80%
    10:00 +16°C° 0.5 mm 3 m/S 752 mmHg 77%
    11:00 +17°C° 0 mm 3 m/S 752 mmHg 74%
    12:00 +18°C° 0 mm 2 m/S 752 mmHg 71%
    13:00 +19°C° 0 mm 2 m/S 752 mmHg 67%
    14:00 +18°C° 0.1 mm 2 m/S 753 mmHg 71%
    15:00 +18°C° 0.1 mm 1 m/S 753 mmHg 75%
    16:00 +16°C° 0.1 mm 1 m/S 753 mmHg 79%
    17:00 +16°C° 0.3 mm 1 m/S 753 mmHg 81%
    18:00 +15°C° 0.3 mm 2 m/S 754 mmHg 82%
    19:00 +14°C° 0.3 mm 2 m/S 754 mmHg 84%
    20:00 +14°C° 0.3 mm 2 m/S 755 mmHg 84%
    21:00 +13°C° 0.3 mm 3 m/S 755 mmHg 84%
    22:00 +13°C° 0.3 mm 3 m/S 755 mmHg 83%
    23:00 +12°C° 0.7 mm 3 m/S 755 mmHg 83%

    22 November, Donnerstag

    Zeit Temperatur Niederschläge Wind Luftdruck Luftfeuchtigkeit
    00:00 +12°C° 0.7 mm 3 m/S 755 mmHg 82%
    01:00 +12°C° 0.7 mm 3 m/S 755 mmHg 82%
    02:00 +12°C° 0.8 mm 3 m/S 755 mmHg 81%
    03:00 +12°C° 0.8 mm 4 m/S 755 mmHg 80%
    04:00 +11°C° 0.8 mm 4 m/S 755 mmHg 80%
    05:00 +11°C° 0.4 mm 4 m/S 756 mmHg 79%
    06:00 +11°C° 0.4 mm 4 m/S 756 mmHg 78%
    07:00 +12°C° 0.4 mm 4 m/S 756 mmHg 77%
    08:00 +13°C° 0.2 mm 3 m/S 756 mmHg 70%
    09:00 +16°C° 0.2 mm 3 m/S 756 mmHg 63%
    10:00 +18°C° 0.2 mm 3 m/S 756 mmHg 56%
    11:00 +19°C° 0.3 mm 3 m/S 756 mmHg 56%
    12:00 +19°C° 0.3 mm 3 m/S 756 mmHg 56%
    13:00 +19°C° 0.3 mm 3 m/S 756 mmHg 56%
    14:00 +18°C° 0.3 mm 3 m/S 756 mmHg 62%
    15:00 +17°C° 0.3 mm 2 m/S 756 mmHg 69%
    16:00 +16°C° 0.3 mm 2 m/S 756 mmHg 75%
    17:00 +16°C° 0.1 mm 2 m/S 756 mmHg 79%
    18:00 +15°C° 0.1 mm 2 m/S 757 mmHg 82%
    19:00 +14°C° 0.1 mm 2 m/S 757 mmHg 85%
    20:00 +14°C° 0 mm 2 m/S 757 mmHg 85%
    21:00 +14°C° 0 mm 2 m/S 757 mmHg 84%
    22:00 +13°C° 0 mm 2 m/S 758 mmHg 84%
    23:00 +13°C° 0.1 mm 2 m/S 758 mmHg 83%
    Mehr zeigen